FW2264 Weather Reports


Display with metric or nautical units.
time (UTC)temp
F
wind
direction
speed
MPH
gust
MPH
rain 1hr
in
rain 24hr
in
rain mn
in
humidity
%
barometer
mb
20260506184910 57 163 1.0 6.0 0.00 1.63 0.77 49 1010.7
20260506184855 57 251 2.0 7.0 0.00 1.63 0.77 52 1010.9
20260506183911 56 183 2.0 7.0 0.00 1.63 0.77 50 1010.7
20260506183411 56 173 2.0 6.0 0.00 1.63 0.77 52 1010.7
20260506182911 56 193 2.0 4.0 0.00 1.63 0.77 50 1010.9
20260506182411 57 163 2.0 4.0 0.00 1.63 0.77 49 1010.7
20260506181910 57 272 2.0 8.0 0.00 1.63 0.77 51 1010.8
20260506181636 57 274 3.0 8.0 0.00 1.63 0.77 51 1010.8
20260506180910 57 195 2.0 5.0 0.00 1.63 0.77 48 1010.8
20260506180411 57 171 2.0 6.0 0.00 1.63 0.77 51 1010.6
20260506175911 57 273 2.0 6.0 0.00 1.63 0.77 53 1010.8
20260506175411 57 150 2.0 6.0 0.00 1.63 0.77 53 1010.8
20260506174909 57 171 1.0 6.0 0.00 1.63 0.77 48 1010.9
20260506174359 57 179 1.0 6.0 0.00 1.63 0.77 48 1010.8
20260506173852 57 198 2.0 6.0 0.00 1.63 0.77 52 1010.8
20260506173346 57 290 2.0 6.0 0.00 1.63 0.77 51 1010.8
20260506172840 57 148 1.0 6.0 0.00 1.63 0.77 48 1010.7
20260506172334 57 312 2.0 5.0 0.00 1.63 0.77 52 1010.7
20260506172322 57 192 2.0 6.0 0.00 1.63 0.77 52 1010.8
20260506171322 57 221 2.0 6.0 0.00 1.63 0.77 52 1010.8
20260506170816 57 153 2.0 6.0 0.00 1.63 0.77 52 1010.7
20260506170310 56 237 2.0 6.0 0.00 1.63 0.77 52 1010.8
20260506165804 55 88 2.0 6.0 0.00 1.63 0.77 56 1010.8
20260506165258 56 296 1.0 7.0 0.00 1.63 0.77 50 1010.7
20260506164752 56 270 1.0 7.0 0.00 1.63 0.77 55 1010.8
20260506164510 55 174 2.0 7.0 0.00 1.63 0.77 58 1011.1
20260506163740 55 178 2.0 7.0 0.00 1.63 0.77 53 1011.0
20260506163234 55 150 1.0 4.0 0.00 1.63 0.77 57 1011.0
20260506162728 54 285 1.0 5.0 0.00 1.63 0.77 62 1010.8
20260506162222 54 253 2.0 5.0 0.00 1.63 0.77 58 1010.7
20260506161716 54 234 2.0 5.0 0.00 1.63 0.77 60 1010.7
20260506161210 54 229 2.0 5.0 0.00 1.63 0.77 59 1010.6
20260506160704 54 172 2.0 5.0 0.00 1.63 0.77 60 1010.6
20260506160414 54 219 1.0 4.0 0.00 1.63 0.77 60 1010.7
20260506155651 54 277 1.0 4.0 0.00 1.63 0.77 64 1010.6
20260506155146 53 178 1.0 4.0 0.00 1.63 0.77 64 1010.5
20260506154640 53 288 1.0 4.0 0.00 1.63 0.77 64 1010.2
20260506154355 52 71 1.0 5.0 0.00 1.63 0.77 64 1010.3
20260506153627 52 186 1.0 5.0 0.00 1.63 0.77 65 1010.4
20260506153349 52 175 1.0 6.0 0.00 1.63 0.77 68 1010.4
20260506152616 52 225 1.0 6.0 0.00 1.63 0.77 69 1010.2
20260506152115 51 253 1.0 4.0 0.00 1.63 0.77 72 1009.8
20260506151606 51 184 1.0 4.0 0.00 1.63 0.77 71 1009.9
20260506151058 51 23 1.0 4.0 0.00 1.63 0.77 74 1010.2
20260506150552 50 238 1.0 3.0 0.00 1.63 0.77 74 1010.3
20260506150047 50 232 1.0 3.0 0.00 1.63 0.77 72 1010.3
20260506145540 50 308 1.0 2.0 0.00 1.63 0.77 73 1010.0
20260506145034 49 314 1.0 2.0 0.00 1.63 0.77 73 1010.0
20260506144748 49 251 1.0 3.0 0.00 1.63 0.77 73 1009.8
20260506144022 49 285 1.0 3.0 0.00 1.63 0.77 75 1009.8
20260506143516 49 311 1.0 3.0 0.01 1.63 0.77 77 1009.5
20260506143010 49 132 1.0 2.0 0.01 1.63 0.77 79 1009.4
20260506142504 48 331 1.0 2.0 0.01 1.63 0.77 80 1009.4
20260506141958 48 236 1.0 2.0 0.01 1.63 0.77 84 1009.3
20260506141452 47 221 1.0 2.0 0.01 1.63 0.77 84 1009.2
20260506140946 47 242 1.0 4.0 0.01 1.63 0.77 86 1009.3
20260506140700 46 273 1.0 4.0 0.01 1.63 0.77 86 1009.3
20260506135934 46 219 0.0 3.0 0.01 1.63 0.77 87 1009.3
20260506135428 46 256 0.0 3.0 0.01 1.63 0.77 90 1009.3
20260506134922 45 221 0.0 3.0 0.01 1.63 0.77 89 1009.1
20260506134420 45 300 0.0 2.0 0.01 1.63 0.77 90 1009.1
20260506133920 45 208 1.0 2.0 0.01 1.63 0.77 90 1009.2
20260506133420 45 236 1.0 2.0 0.00 1.62 0.76 91 1009.1
20260506132920 45 99 1.0 3.0 0.00 1.62 0.76 90 1009.2
20260506132421 44 213 1.0 3.0 0.00 1.62 0.76 91 1009.4
20260506131920 44 246 0.0 2.0 0.00 1.62 0.76 91 1009.2
20260506131418 44 207 0.0 3.0 0.00 1.62 0.76 91 1009.1
20260506130916 44 209 1.0 3.0 0.00 1.62 0.76 91 1009.1
20260506130414 44 355 1.0 3.0 0.00 1.62 0.76 91 1009.0
20260506125912 44 226 1.0 3.0 0.00 1.62 0.76 92 1008.9
20260506125410 45 252 1.0 3.0 0.00 1.62 0.76 93 1008.8
20260506124908 44 227 0.0 3.0 0.00 1.62 0.76 93 1008.6
20260506124406 44 223 0.0 2.0 0.00 1.62 0.76 93 1008.5
20260506123904 44 222 0.0 2.0 0.01 1.62 0.76 93 1008.3
20260506123402 44 222 0.0 2.0 0.01 1.62 0.76 93 1008.2
20260506122903 44 222 0.0 2.0 0.01 1.62 0.76 93 1008.1
20260506122402 44 222 0.0 3.0 0.02 1.62 0.76 93 1007.9
20260506121900 44 246 0.0 3.0 0.03 1.62 0.76 94 1008.1
20260506121358 44 217 0.0 2.0 0.03 1.63 0.76 94 1008.2
20260506120857 44 223 0.0 2.0 0.04 1.63 0.76 94 1008.3
20260506120356 44 223 0.0 2.0 0.04 1.63 0.76 94 1008.3
20260506115854 44 221 0.0 2.0 0.05 1.63 0.76 94 1008.1
20260506115354 44 221 0.0 2.0 0.05 1.63 0.76 94 1008.0
20260506114854 44 238 0.0 2.0 0.06 1.63 0.76 94 1008.1
20260506114354 44 238 0.0 2.0 0.07 1.63 0.76 94 1007.9
20260506113854 44 317 0.0 2.0 0.06 1.62 0.75 94 1007.5
20260506113354 44 268 0.0 2.0 0.07 1.62 0.75 94 1007.4
20260506113112 44 298 0.0 2.0 0.08 1.62 0.75 94 1007.4
20260506112355 44 325 0.0 2.0 0.08 1.61 0.74 94 1007.1
20260506112120 44 340 0.0 2.0 0.08 1.60 0.74 94 1007.0
20260506111350 44 340 0.0 2.0 0.09 1.60 0.73 94 1007.3
20260506110850 44 340 0.0 2.0 0.09 1.59 0.72 94 1007.5
20260506110350 44 304 0.0 2.0 0.10 1.59 0.72 94 1007.4
20260506105849 44 9 0.0 2.0 0.10 1.58 0.71 94 1007.3
20260506105614 44 9 1.0 2.0 0.11 1.58 0.71 94 1007.0
20260506104849 44 13 0.0 2.0 0.11 1.57 0.70 94 1006.8
20260506104350 44 17 0.0 2.0 0.11 1.56 0.69 94 1007.1
20260506103850 44 325 0.0 2.0 0.13 1.56 0.69 94 1007.4
20260506103350 44 130 0.0 2.0 0.13 1.55 0.68 94 1007.4
20260506102843 44 126 0.0 2.0 0.13 1.54 0.67 94 1007.3
20260506102337 44 126 0.0 2.0 0.13 1.53 0.66 94 1006.9
20260506102056 44 76 0.0 2.0 0.13 1.52 0.65 94 1006.4
20260506101325 44 76 0.0 2.0 0.13 1.51 0.64 94 1006.3
20260506100819 44 342 0.0 6.0 0.13 1.50 0.63 94 1006.0
20260506100313 44 341 0.0 6.0 0.13 1.49 0.62 94 1006.1
20260506095808 44 315 1.0 6.0 0.13 1.48 0.61 93 1006.1
20260506095522 44 315 2.0 6.0 0.13 1.47 0.60 93 1005.6
20260506094755 44 351 2.0 5.0 0.13 1.46 0.59 93 1005.3
20260506094248 44 344 1.0 5.0 0.13 1.45 0.58 93 1005.6
20260506093743 44 5 1.0 2.0 0.12 1.43 0.56 93 1006.2
20260506093237 44 25 0.0 2.0 0.12 1.42 0.55 94 1006.3
20260506092949 44 322 0.0 3.0 0.12 1.41 0.54 93 1006.2
20260506092225 44 329 1.0 3.0 0.12 1.40 0.53 93 1006.0
20260506091719 44 340 1.0 3.0 0.12 1.39 0.52 93 1006.0
20260506091432 44 9 1.0 3.0 0.12 1.38 0.51 93 1006.1
20260506091140 44 55 1.0 3.0 0.12 1.37 0.50 93 1006.1
20260506090201 44 182 1.0 2.0 0.13 1.36 0.49 93 1006.4
20260506085655 44 317 0.0 5.0 0.12 1.35 0.48 93 1006.5
20260506085149 44 314 0.0 5.0 0.13 1.34 0.47 93 1006.4
20260506084643 45 332 1.0 4.0 0.13 1.33 0.46 93 1006.3
20260506084137 45 13 1.0 3.0 0.13 1.32 0.45 93 1006.2
20260506083631 45 5 1.0 4.0 0.13 1.31 0.44 93 1006.0
20260506083125 45 327 1.0 4.0 0.13 1.30 0.43 93 1006.1
20260506082619 45 308 1.0 3.0 0.13 1.29 0.42 93 1006.1
20260506082341 45 184 1.0 2.0 0.13 1.28 0.41 93 1006.1
20260506081833 46 253 0.0 5.0 0.13 1.27 0.40 93 1006.0
20260506081102 46 355 1.0 5.0 0.12 1.25 0.39 93 1005.8
20260506080555 46 296 1.0 3.0 0.12 1.24 0.37 94 1005.9
20260506080311 46 324 1.0 4.0 0.12 1.23 0.36 93 1005.8
20260506073235 47 329 0.0 2.0 0.10 1.18 0.30 94 1005.7
20260506072507 47 266 0.0 2.0 0.10 1.17 0.29 94 1005.5
20260506072001 47 19 0.0 2.0 0.09 1.16 0.28 94 1005.4
20260506071455 47 67 0.0 2.0 0.09 1.15 0.27 94 1005.3
20260506070949 47 299 0.0 3.0 0.08 1.14 0.26 94 1005.4
20260506070443 47 312 0.0 3.0 0.08 1.13 0.25 94 1005.5
20260506061849 48 9 1.0 2.0 0.07 1.07 0.19 93 1005.2
20260506061823 48 271 0.0 2.0 0.06 1.06 0.18 93 1005.3
20260506060837 48 58 1.0 4.0 0.07 1.06 0.18 93 1005.4
20260506060555 48 36 1.0 4.0 0.06 1.05 0.17 93 1005.3
20260506051251 49 355 1.0 2.0 0.10 1.00 0.12 94 1005.8
20260506050751 49 351 1.0 2.0 0.10 0.99 0.11 94 1005.8
20260506050511 49 333 1.0 2.0 0.10 0.98 0.11 94 1006.0
20260506044747 49 10 1.0 2.0 0.11 0.96 0.09 93 1005.8
20260506044247 49 13 1.0 2.0 0.12 0.96 0.08 93 1006.0
20260506043747 49 355 1.0 2.0 0.12 0.95 0.07 93 1006.0
20260506043501 49 0 1.0 2.0 0.12 0.94 0.06 93 1006.0
20260506042745 49 34 1.0 2.0 0.12 0.93 0.05 93 1006.1
20260506042245 49 355 1.0 2.0 0.12 0.92 0.04 93 1006.1
20260506041743 49 355 0.0 2.0 0.13 0.91 0.03 93 1006.1
20260506041242 49 96 0.0 2.0 0.13 0.90 0.02 93 1006.1
20260506041001 49 332 0.0 2.0 0.13 0.89 0.01 93 1006.1
20260506040459 49 319 0.0 2.0 0.13 0.88 0.00 93 1006.1
20260506035738 50 335 1.0 2.0 0.13 0.87 0.87 93 1006.2
20260506035232 50 309 0.0 3.0 0.14 0.86 0.86 92 1006.2
20260506034726 50 268 0.0 3.0 0.14 0.85 0.85 92 1006.3
20260506034220 50 284 0.0 2.0 0.14 0.84 0.84 92 1006.5
20260506033714 50 281 1.0 3.0 0.15 0.83 0.83 92 1006.5
20260506033214 50 287 1.0 3.0 0.15 0.82 0.82 91 1006.5
20260506032931 51 270 1.0 4.0 0.15 0.81 0.81 91 1006.6
20260506032212 51 270 1.0 4.0 0.16 0.80 0.80 91 1006.8
20260506031713 52 269 1.0 4.0 0.15 0.78 0.78 91 1006.8
20260506031212 53 279 1.0 3.0 0.15 0.77 0.77 91 1006.7
20260506030712 54 193 2.0 6.0 0.16 0.76 0.76 91 1006.9
20260506030210 55 163 3.0 8.0 0.16 0.75 0.75 91 1006.6
20260506025710 56 203 2.0 8.0 0.15 0.74 0.74 92 1006.5
20260506025433 57 145 2.0 5.0 0.14 0.72 0.72 93 1006.2
20260506024710 57 155 2.0 5.0 0.14 0.71 0.71 93 1006.4
20260506024210 57 157 2.0 5.0 0.13 0.70 0.70 93 1006.5
20260506023709 57 156 2.0 5.0 0.12 0.68 0.68 93 1006.5
20260506023429 57 155 2.0 4.0 0.11 0.67 0.67 93 1006.6
20260506022706 57 153 2.0 5.0 0.11 0.66 0.66 93 1006.6
20260506022207 57 157 2.0 5.0 0.09 0.64 0.64 93 1006.6
20260506021705 57 159 2.0 4.0 0.09 0.63 0.63 93 1006.6
20260506021203 57 156 2.0 4.0 0.10 0.62 0.62 94 1006.6
20260506020659 57 161 2.0 3.0 0.09 0.60 0.60 93 1006.7
20260506020159 57 164 2.0 3.0 0.09 0.59 0.60 93 1006.7
20260506015654 57 167 2.0 3.0 0.11 0.59 0.59 93 1006.7
20260506015418 57 167 2.0 3.0 0.11 0.58 0.58 93 1006.7
20260506014654 57 161 2.0 3.0 0.12 0.57 0.57 93 1006.7
20260506014154 57 164 2.0 3.0 0.14 0.57 0.57 93 1006.7
20260506014130 57 165 3.0 3.0 0.14 0.56 0.56 93 1006.6
20260506013633 57 165 3.0 4.0 0.14 0.56 0.56 93 1006.6
20260506012654 57 162 3.0 4.0 0.14 0.55 0.55 93 1006.5
20260506012634 57 162 3.0 5.0 0.15 0.55 0.55 94 1006.5
20260506011654 57 164 3.0 5.0 0.14 0.53 0.54 94 1006.4
20260506011154 57 163 3.0 5.0 0.13 0.52 0.53 94 1006.3
20260506010654 57 150 3.0 5.0 0.13 0.51 0.51 94 1006.4
20260506010420 57 165 3.0 5.0 0.12 0.50 0.50 94 1006.4
20260506005654 57 165 2.0 5.0 0.11 0.48 0.49 94 1006.4
20260506005154 57 158 2.0 4.0 0.10 0.47 0.47 94 1006.4
20260506004912 57 153 1.0 4.0 0.08 0.45 0.45 94 1006.3
20260506004154 57 167 1.0 4.0 0.07 0.43 0.44 94 1006.3
20260506004006 57 164 0.0 2.0 0.06 0.42 0.42 93 1006.3
20260506003901 57 164 0.0 2.0 0.07 0.42 0.42 93 1006.2
20260506002647 57 164 0.0 1.0 0.08 0.41 0.41 93 1006.2
20260506002143 57 164 1.0 2.0 0.10 0.40 0.40 93 1006.1
20260506001636 57 164 1.0 3.0 0.10 0.39 0.39 93 1006.2
20260506001129 57 164 1.0 3.0 0.10 0.39 0.39 93 1006.3
20260506000843 57 169 1.0 1.0 0.09 0.38 0.38 93 1006.3
20260506000118 57 169 1.0 2.0 0.09 0.38 0.38 93 1006.2
20260505235611 57 169 1.0 2.0 0.08 0.37 0.37 93 1006.2
20260505235105 57 170 1.0 3.0 0.09 0.37 0.37 93 1006.3
20260505234559 57 171 1.0 3.0 0.09 0.37 0.37 93 1006.3
20260505234053 57 186 1.0 3.0 0.09 0.36 0.36 93 1006.3
20260505233547 57 178 2.0 4.0 0.11 0.36 0.36 93 1006.4
20260505233041 57 203 2.0 4.0 0.11 0.35 0.35 93 1006.5
20260505232759 57 179 2.0 4.0 0.10 0.32 0.33 93 1006.6
20260505232028 57 173 2.0 4.0 0.09 0.30 0.30 93 1006.7
20260505231523 57 187 2.0 3.0 0.09 0.29 0.29 93 1006.7
20260505231017 57 184 2.0 3.0 0.11 0.29 0.29 92 1006.6
20260505230727 57 158 2.0 3.0 0.12 0.29 0.29 92 1006.8
20260505230005 57 195 2.0 3.0 0.15 0.29 0.29 92 1006.7
20260505225459 57 169 2.0 3.0 0.20 0.29 0.29 92 1006.7
20260505224953 57 169 2.0 3.0 0.26 0.28 0.28 92 1006.8
20260505224447 57 170 2.0 3.0 0.25 0.27 0.28 92 1006.9
20260505223941 57 172 2.0 3.0 0.24 0.26 0.26 91 1006.9
20260505223435 57 184 2.0 4.0 0.22 0.24 0.25 91 1006.9
20260505222929 57 167 3.0 7.0 0.22 0.24 0.24 90 1007.0
20260505222423 57 190 4.0 7.0 0.20 0.22 0.22 90 1007.0
20260505221917 57 182 4.0 6.0 0.18 0.20 0.21 90 1007.0
20260505221412 57 167 5.0 15.0 0.17 0.19 0.19 89 1007.0
20260505220905 57 157 6.0 15.0 0.16 0.18 0.18 87 1006.9
20260505220618 58 172 8.0 16.0 0.14 0.16 0.17 86 1006.7
20260505215853 59 184 10.0 18.0 0.12 0.14 0.14 82 1006.7
20260505215347 63 186 8.0 18.0 0.04 0.06 0.07 73 1006.6
20260505214841 66 157 6.0 9.0 0.00 0.02 0.02 63 1005.9
20260505214555 66 155 5.0 9.0 0.00 0.02 0.02 63 1005.7
20260505214048 67 150 4.0 7.0 0.00 0.02 0.02 61 1005.7
20260505213323 67 168 4.0 7.0 0.00 0.02 0.02 62 1005.6
20260505212817 67 155 4.0 6.0 0.00 0.02 0.02 63 1005.6
20260505212311 67 151 3.0 6.0 0.00 0.02 0.02 62 1005.7
20260505211805 66 155 3.0 6.0 0.00 0.02 0.02 62 1005.5
20260505211259 66 157 3.0 6.0 0.00 0.02 0.02 63 1005.7
20260505210753 66 151 3.0 6.0 0.00 0.02 0.02 63 1005.6
20260505210247 66 156 3.0 6.0 0.00 0.02 0.02 63 1005.7
20260505205741 66 151 3.0 5.0 0.00 0.02 0.02 63 1005.7
20260505205235 66 155 3.0 5.0 0.00 0.02 0.02 63 1005.8
20260505204729 66 168 4.0 5.0 0.00 0.02 0.02 64 1006.0
20260505204223 66 162 3.0 6.0 0.00 0.02 0.02 64 1006.1
20260505203717 66 155 3.0 6.0 0.00 0.02 0.02 64 1006.0
20260505203210 66 153 4.0 6.0 0.00 0.02 0.02 64 1006.1
20260505202926 66 150 4.0 6.0 0.00 0.02 0.02 65 1006.2
20260505202420 66 155 4.0 6.0 0.00 0.02 0.02 64 1006.2
20260505201654 66 155 5.0 8.0 0.00 0.02 0.02 63 1006.2
20260505201147 66 159 5.0 8.0 0.00 0.02 0.02 63 1006.4
20260505201120 66 157 5.0 7.0 0.00 0.02 0.02 64 1006.4
20260505200135 66 163 6.0 8.0 0.00 0.02 0.02 63 1006.5
20260505195629 66 161 6.0 9.0 0.00 0.02 0.02 63 1006.5
20260505195123 66 161 6.0 9.0 0.00 0.02 0.02 64 1006.6
20260505194617 66 161 6.0 8.0 0.00 0.02 0.02 63 1006.6
20260505194111 66 159 6.0 9.0 0.00 0.02 0.02 63 1006.7
20260505193611 66 167 7.0 10.0 0.00 0.02 0.02 64 1006.8
20260505193330 66 163 6.0 10.0 0.00 0.02 0.02 63 1006.8
20260505192831 65 162 5.0 8.0 0.00 0.02 0.02 64 1006.8
20260505192109 65 157 5.0 7.0 0.00 0.02 0.02 66 1006.9
20260505191609 65 167 5.0 8.0 0.00 0.02 0.02 65 1007.0
20260505191559 65 159 6.0 10.0 0.00 0.02 0.02 66 1007.0
20260505190607 65 164 6.0 10.0 0.00 0.02 0.02 66 1007.0
20260505190548 65 161 5.0 8.0 0.00 0.02 0.02 66 1007.0
20260505185603 65 161 5.0 8.0 0.00 0.02 0.02 67 1007.0